Simultaneous Nadir Overpasses (SNOs) Predictions

Prediction of SNOs between AQUA and METOP-A Satellite Orbit:

Table of predicted SNOs for the next 14.0 days since TLE Epoch: 12/1/2017
Index Date (AQUA) Time (AQUA) Lat,Lon (AQUA) SZA (AQUA ) Date (METOP-A) Time (METOP-A) Lat,Lon (METOP-A) SZA (METOP-A ) Distance(km) Time Diff (sec)
1 12/03/2017 08:05:53 -74.07,-127.83 83.85 12/03/2017 08:05:32 -74.05,-127.80 83.87 2.70 21
2 12/03/2017 08:55:21 74.12, 39.70 96.21 12/03/2017 08:56:10 74.12, 39.71 96.21 0.41 49
3 12/06/2017 02:50:28 73.33, 132.58 95.75 12/06/2017 02:49:23 73.31, 129.56 95.79 96.51 65
4 12/06/2017 03:40:08 -74.06, -61.36 83.50 12/06/2017 03:39:50 -74.06, -61.35 83.49 0.52 18
5 12/06/2017 04:29:36 74.11, 106.17 96.56 12/06/2017 04:30:28 74.13, 106.15 96.58 2.54 52
6 12/08/2017 22:24:45 73.48,-161.29 96.22 12/08/2017 22:23:38 73.42,-163.79 96.21 79.38 67
7 12/08/2017 23:14:22 -74.05, 5.10 83.19 12/08/2017 23:14:07 -74.07, 5.08 83.17 2.43 15
8 12/09/2017 00:03:51 74.15, 172.50 96.92 12/09/2017 00:04:45 74.14, 172.58 96.90 2.92 54
9 12/11/2017 17:59:02 73.59, -95.07 96.58 12/11/2017 17:57:54 73.52, -97.14 96.56 65.34 68
10 12/11/2017 18:48:37 -74.05, 71.54 82.94 12/11/2017 18:48:25 -74.08, 71.52 82.91 3.14 12
11 12/11/2017 19:38:06 74.16,-121.06 97.18 12/11/2017 19:39:03 74.14,-121.00 97.16 2.40 57
12 12/14/2017 13:33:19 73.70, -28.88 96.89 12/14/2017 13:32:09 73.67, -30.37 96.90 46.86 70
13 12/14/2017 14:22:52 -74.06, 137.96 82.74 12/14/2017 14:22:43 -74.09, 137.94 82.71 2.60 9
14 12/14/2017 15:12:21 74.17, -54.64 97.38 12/14/2017 15:13:21 74.14, -54.58 97.35 2.90 60




NCC Satellite Simultaneous Nadir Overpasses (SNOs) Prediction Service
